Regional Weather Roundup
Issued by NWS

Home | Current Version | Previous Version | Graphics & Text | Print | Product List | Glossary On
Versions: 1 2 3 4 5 6 7 8 9 10 11 12 13 14 15 16 17 18 19 20 21 22 23 24 25 26 27 28 29 30 31 32 33 34 35 36 37 38 39 40 41 42 43 44 45 46 47 48 49 50
000
ASUS44 KMEG 230300
RWRTN
TENNESSEE HOURLY STATE WEATHER ROUNDUP
NATIONAL WEATHER SERVICE MEMPHIS TN
1000 PM CDT WED OCT 22 2014

TNZ002-004-019-021-049-052-054-088>092-230400-
WEST TENNESSEE

CITY           SKY/WX    TMP DP  RH WIND       PRES   REMARKS
MEMPHIS INTL   CLEAR     55  44  66 E6        30.18F
NWS MEMPHIS      N/A     50 N/A N/A MISG        N/A
JACKSON        CLEAR     47  42  83 CALM      30.20S
DYERSBURG      CLEAR     48  36  61 CALM      30.23R
UNION CITY     CLEAR     43  43 100 CALM      30.20S
PARIS          CLEAR     46  39  76 NE5       30.22R
LEXINGTON      CLEAR     45  43  93 CALM      30.20S
SAVANNAH       CLEAR     43  43 100 CALM      30.20S
$$

TNZ008-025-027-028-033-062-065-066-230400-
NORTH MIDDLE TENNESSEE

CITY           SKY/WX    TMP DP  RH WIND       PRES   REMARKS
NASHVILLE      CLEAR     51  43  74 NE7       30.22R
CLARKSVILLE    CLEAR     47  41  80 CALM      30.22S
CROSSVILLE     CLEAR     42  37  82 NE5       30.22S
$$

TNZ061-075-076-078-094-096-097-230400-
SOUTH MIDDLE TENNESSEE

CITY           SKY/WX    TMP DP  RH WIND       PRES   REMARKS
SHELBYVILLE    CLEAR     45  43  93 CALM      30.21S
$$

TNZ017-018-042-046-047-230400-
NORTHEAST TENNESSEE

CITY           SKY/WX    TMP DP  RH WIND       PRES   REMARKS
TRI CITIES     MOCLDY    47  41  80 CALM      30.21S
ELIZABETHTON   CLOUDY    45  39  81 W6        30.20S
$$

TNZ012-013-036-069-073-074-230400-
CENTRAL EAST TENNESSEE

CITY           SKY/WX    TMP DP  RH WIND       PRES   REMARKS
KNOXVILLE      PTCLDY    46  39  76 NE8       30.22S
OAK RIDGE      CLEAR     45  40  82 CALM      30.24S
GATLINBURG     MOCLDY    45  39  81 CALM      30.22S
$$

TNZ083-085-099-230400-
SOUTHEAST TENNESSEE

CITY           SKY/WX    TMP DP  RH WIND       PRES   REMARKS
CHATTANOOGA    CLEAR     52  42  69 NE13      30.21R
$$

SKY/WX REPORTED AS FAIR MEANS FEW OR NO CLOUDS BELOW
12 THOUSAND FEET.




USA.gov is the U.S. government's official web portal to all federal, state and local government web resources and services.